Regional Weather Roundup
Issued by NWS

Home | Current Version | Previous Version | Text Only | Print | Product List | Glossary Off
Versions: 1 2 3 4 5 6 7 8 9 10 11 12 13 14 15 16 17 18 19 20 21 22 23 24 25 26 27 28 29 30 31 32 33 34 35 36 37 38 39 40 41 42 43 44 45 46 47 48 49 50

000
ASUS43 KOAX 201210
RWRNE

WEATHER ROUNDUP FOR NEBRASKA
NATIONAL WEATHER SERVICE OMAHA NE
600 AM CST SAT JAN 20 2018

NOTES: SATELLITE DATA IS BEING USED TO AUGMENT CLOUD COVER ABOVE
       12000 FEET.
       "FAIR" INDICATES FEW OR NO CLOUDS BELOW 12,000 FEET WITH NO
       SIGNIFICANT WEATHER AND/OR OBSTRUCTIONS TO VISIBILITY.


NEZ001>004-019>022-054>056-201300-
NEBRASKA PANHANDLE

CITY           SKY/WX    TMP DP  RH WIND       PRES   REMARKS
SCOTTSBLUFF    MOCLDY    27  25  92 NW8       29.77R WCI  19
6HR MIN TEMP:  25; 6HR MAX TEMP:  34;

ALLIANCE       MOCLDY    28  27  96 N9        29.77R WCI  19
6HR MIN TEMP:  21; 6HR MAX TEMP:  30;

CHADRON        PTCLDY    24  23  96 CALM      29.82R
6HR MIN TEMP:  22; 6HR MAX TEMP:  26;

GORDON         FAIR      24  22  90 CALM      29.80R
6HR MIN TEMP:  23; 6HR MAX TEMP:  28;

KIMBALL        CLOUDY    29  23  78 CALM      29.75S
SIDNEY         CLOUDY    29  25  85 NW10      29.76R WCI  20
6HR MIN TEMP:  26; 6HR MAX TEMP:  35;

$$

NEZ057>060-069>072-079>082-201300-
SOUTHWEST NEBRASKA

CITY           SKY/WX    TMP DP  RH WIND       PRES   REMARKS
NORTH PLATTE   MOCLDY    28  25  88 CALM      29.78R
6HR MIN TEMP:  27; 6HR MAX TEMP:  36;

IMPERIAL       CLOUDY    27  26  96 NW5       29.76R WCI  22
6HR MIN TEMP:  26; 6HR MAX TEMP:  32;

LEXINGTON      PTCLDY    32  28  86 NE5       29.76S WCI  27
MCCOOK         PTCLDY    25  23  92 N6        29.74F WCI  18
6HR MIN TEMP:  24; 6HR MAX TEMP:  34;

OGALLALA       CLOUDY    29  27  93 CALM      29.77R
$$

NEZ005>010-023>029-035>040-094-201300-
NORTH CENTRAL NEBRASKA

CITY           SKY/WX    TMP DP  RH WIND       PRES   REMARKS
VALENTINE      PTCLDY    25  23  92 W3        29.83R
6HR MIN TEMP:  25; 6HR MAX TEMP:  31;

AINSWORTH      MOCLDY    28  28  99 NW3       29.81R
BROKEN BOW     PTCLDY    32  27  81 N8        29.76S WCI  25
6HR MIN TEMP:  31; 6HR MAX TEMP:  37;

O`NEILL        CLOUDY    30  30  98 N7        29.81S WCI  24
ORD            PTCLDY    29  27  92 N5        29.78F WCI  24
6HR MIN TEMP:  28; 6HR MAX TEMP:  33;

THEDFORD       CLOUDY    31  29  92 N3        29.79S
$$

NEZ041-046>049-061>064-073>077-083>087-201300-
SOUTH CENTRAL NEBRASKA

CITY           SKY/WX    TMP DP  RH WIND       PRES   REMARKS
GRAND ISLAND   CLOUDY    26  26 100 NE3       29.78R
6HR MIN TEMP:  26; 6HR MAX TEMP:  33;

AURORA         CLOUDY    28  26  94 NE5       29.78R WCI  22
HASTINGS       CLOUDY    27  24  89 NE7       29.77R WCI  19
6HR MIN TEMP:  25; 6HR MAX TEMP:  32;

HEBRON         CLOUDY    22  20  93 CALM      29.78S
HOLDREGE       CLOUDY    27  26  98 NE8       29.75S WCI  18
KEARNEY        CLOUDY    26  24  92 N8        29.77R WCI  18
YORK           CLOUDY    25  25 100 NE6       29.79R WCI  18
$$

NEZ011>018-030>034-042>045-201300-
NORTHEAST NEBRASKA

CITY           SKY/WX    TMP DP  RH WIND       PRES   REMARKS
NORFOLK        CLOUDY    29  27  92 NW5       29.80R WCI  24
6HR MIN TEMP:  28; 6HR MAX TEMP:  33;

ALBION         CLOUDY    28  26  91 N3        29.80S
BLAIR          PTCLDY    31  29  90 N9        29.80R WCI  23
COLUMBUS       CLOUDY    26  24  92 CALM      29.81R
FREMONT        CLEAR     24  23  96 CALM      29.81R
TEKAMAH        CLOUDY    23  19  85 CALM      29.82R
6HR MIN TEMP:  23; 6HR MAX TEMP:  33;

WAYNE          PTCLDY    26  25  96 CALM      29.81F
$$

NEZ050>053-065>068-078-088>093-201300-
SOUTHEAST NEBRASKA

CITY           SKY/WX    TMP DP  RH WIND       PRES   REMARKS
LINCOLN        CLOUDY    20  17  88 CALM      29.82R
6HR MIN TEMP:  19; 6HR MAX TEMP:  28;

OMAHA EPPLEY   PTCLDY    25  23  92 CALM      29.81S
6HR MIN TEMP:  24; 6HR MAX TEMP:  33;

BEATRICE       CLOUDY    26  23  91 CALM      29.80R
FALLS CITY     CLEAR     30  27  88 SE3       29.83R
6HR MIN TEMP:  28; 6HR MAX TEMP:  35;

NEBRASKA CITY  CLOUDY    28  26  93 S7        29.81S WCI  21
PLATTSMOUTH    CLOUDY    29  26  89 CALM      29.81R
$$

NEZ044-045-051>053-067-201300-
OMAHA AREA

CITY           SKY/WX    TMP DP  RH WIND       PRES   REMARKS
OMAHA EPPLEY   PTCLDY    25  23  92 CALM      29.81S
6HR MIN TEMP:  24; 6HR MAX TEMP:  33;

BLAIR          PTCLDY    31  29  90 N9        29.80R WCI  23
FREMONT        CLEAR     24  23  96 CALM      29.81R
MILLARD        CLOUDY    26  23  91 CALM      29.81R
OFFUTT AFB     CLOUDY    23  21  94 CALM      29.81R
PLATTSMOUTH    CLOUDY    29  26  89 CALM      29.81R
WAHOO          PTSUNNY   26  24  92 N7        29.80R WCI  18
$$




USA.gov is the U.S. government's official web portal to all federal, state and local government web resources and services.